Location: Amsterdam
(30.7274°N, 84.4357°W)
Time: 20:50:10
(UTC+00:00)

Explorer 11/Cluster Stage 4 - Pass Details

Date: 22 February 2026
Orbit: 463 x 1176 km, 28.8° (Epoch: 5 March)

Event Time Altitude Azimuth Distance (km) Brightness Sun altitude
Rises 14:39:18 0° 221° (SW) 3,725 10.0 28.5°
Reaches altitude 10° 14:42:45 10° 208° (SSW) 2,649 9.5 29.1°
Maximum altitude 14:47:34 23° 158° (SSE) 1,718 9.6 30.0°
Drops below altitude 10° 14:51:45 10° 107° (ESE) 2,259 10.3 30.7°
Sets 14:54:25 0° 93° (E) 3,053 10.4 31.2°
